Meteo Giornale » Osservazioni meteo Uruguay » Carrasco

ore: 11:00 - Osservazioni Meteo Carrasco
Lat. 34° 50' S Lon. 56° 0' W Alt. 32 metri s.l.m.

nuvoloso America/Montevideo

13 °C

Nuvoloso

Temp. 24 Ore

10 °C

15 °C

Sud

24 Km/h

Dew point 6 °C

Umidità 62 %

Visibilità  10 Km

Il sole sorge alle ore 06:32

Il sole tramonta alle ore 18:41

Data e Ora Cielo e Fenomeni T °C DP °C Um. % Pres. hPa Vis. km Vento km/h
Oggi h: 11:00 nuvoloso Nuvoloso 13 6 62 1028 10 S 24
Oggi h: 10:00 molto_nuvoloso Molto Nuvoloso 12 6 66 1028 10 S 25.9
Oggi h: 09:00 molto_nuvoloso Molto Nuvoloso 11 6 71 1027 10 S 29.6
Oggi h: 08:00 molto_nuvoloso Molto Nuvoloso 10 6 76 1026 10 S 29.6
Oggi h: 07:00 nuvoloso Nuvoloso 10 6 76 1025 10 S 27.8
Oggi h: 06:00 molto_nuvoloso Molto Nuvoloso 10 6 76 1024 10 S 27.8
Oggi h: 05:00 nuvoloso Nuvoloso 11 6 71 1024 10 S 27.8
Oggi h: 04:00 nuvoloso Nuvoloso 11 7 76 1023 10 S 25.9
Oggi h: 03:00 poco_nuvoloso Poco Nuvoloso 11 7 76 1023 10 S 27.8
Oggi h: 02:00 poco_nuvoloso Poco Nuvoloso 12 7 71 1023 10 S 27.8
Oggi h: 01:00 sereno Sereno 12 7 71 1023 10 S 27.8
Oggi h: 00:00 sereno Sereno 12 7 71 1023 10 S 27.8
Ieri h: 23:00 nuvoloso Nuvoloso 12 8 76 1022 10 S 27.8
Ieri h: 22:00 nuvoloso Nuvoloso 12 9 81 1022 10 S 33.3
Ieri h: 21:00 molto_nuvoloso Molto Nuvoloso 12 9 81 1021 10 S 33.3
Ieri h: 20:00 coperto Coperto 13 9 76 1020 10 S 33.3
Ieri h: 19:00 molto_nuvoloso Molto Nuvoloso 14 11 82 1018 10 S/SO 27.8
Ieri h: 18:00 molto_nuvoloso Molto Nuvoloso 15 12 82 1018 10 S/SO 27.8
Ieri h: 17:00 molto_nuvoloso Molto Nuvoloso 15 12 82 1016 10 S 29.6
Ieri h: 16:00 molto_nuvoloso Molto Nuvoloso 15 13 87 1015 10 S 29.6
Ieri h: 15:00 coperto Coperto 15 13 87 1014 10 S 37
Ieri h: 14:00 coperto Coperto 15 15 100 1014 8 S 29.6
Ieri h: 13:43 foschia Foschia 15 15 100 1014 2 S/SO 31.5
Ieri h: 13:00 nebbia Nebbia 15 15 100 1014 0.9 S/SO 27.8